Volver al catálogo

FENGYUN 1C DEB

LostPO
NORAD 37414·DEBRIS·🇨🇳 China

Lanzado May 10, 1999 desde Taiyuan Satellite Launch Center

Loading…

Próximos Pases (próximas 24 horas)

TLE

ObsoletoSource: Space-Track

Época: Aug 10, 2023, 07:06 UTC

1 37414U 99025EGG 23222.29594769  .00007063  00000-0  35041-2 0  9997
2 37414  98.0057 240.6673 0181153 341.8529  17.6232 14.09254505448900

Sigue FENGYUN 1C DEB en tiempo real con AllMySat

Download on the App Store